Weather History for KSGJ - July, 2013

Change the Weather History Date:

Tuesday, July 16, 2013

  Actual Average Record
Temperature  
Mean Temperature 82 °F -  
Max Temperature 86 °F 86 °F 98 °F (1983)
Min Temperature 77 °F 71 °F 67 °F (1984)
Cooling Degree Days 16    
Growing Degree Days 32 (Base 50)    
Moisture  
Dew Point 75 °F    
Average Humidity 82    
Maximum Humidity 94    
Minimum Humidity 72    
Precipitation  
Precipitation 0.00 in - - ()
Sea Level Pressure  
Sea Level Pressure 30.20 in    
Wind  
Wind Speed 9 mph (ENE)    
Max Wind Speed 14 mph    
Max Gust Speed -    
Visibility 10 miles    
Events Thunderstorm    
Averages and records for this station are not official NWS values.
T = Trace of Precipitation, MM = Missing Value Source: NWS Daily Summary

Daily Weather History Graph

Daily Weather History Graph

Search for Another Location

Airport or City:

Trip Planner

Search our weather history database for the weather conditions in past years. The results will help you decide how hot, cold, wet, or windy it might be!

Date:

Astronomy

Jul. 16, 2013 Rise Set
Actual Time 6:35 AM EDT 8:27 PM EDT
Civil Twilight 6:08 AM EDT 8:54 PM EDT
Nautical Twilight 5:36 AM EDT 9:26 PM EDT
Astronomical Twilight 5:01 AM EDT 10:00 PM EDT
Moon 2:17 PM EDT (7/16) 12:51 AM EDT (7/16)
Length of Visible Light 14h 45m
Length of Day
13h 52m
First Quarter, 56% of the Moon is Illuminated
Jul 16
First Quarter
Jul 22
Full
Jul 29
Last Quarter
Aug 6
New
Aug 14
First Quarter

Hourly Weather History & Observations

Time (EDT) Temp. Heat Index Dew Point Humidity Pressure Visibility Wind Dir Wind Speed Gust Speed Precip Events Conditions
12:58 AM 78.1 °F - 75.0 °F 90% 30.18 in 10.0 mi East 6.9 mph - N/A   Unknown
1:58 AM 78.1 °F - 75.0 °F 90% 30.17 in 10.0 mi East 9.2 mph - N/A   Unknown
2:58 AM 77.0 °F - 73.9 °F 90% 30.16 in 10.0 mi East 5.8 mph - N/A   Unknown
3:58 AM 77.0 °F - 75.0 °F 94% 30.17 in 10.0 mi East 8.1 mph - N/A   Unknown
4:58 AM 78.1 °F - 75.0 °F 90% 30.16 in 10.0 mi East 9.2 mph - N/A   Unknown
5:58 AM 78.1 °F - 75.0 °F 90% 30.18 in 10.0 mi ENE 6.9 mph - N/A   Unknown
6:58 AM 78.1 °F - 75.0 °F 90% 30.18 in 10.0 mi East 8.1 mph - N/A   Clear
7:58 AM 80.1 °F 85.4 °F 75.9 °F 87% 30.19 in 10.0 mi East 10.4 mph - N/A   Clear
8:58 AM 82.0 °F 89.4 °F 75.9 °F 82% 30.22 in 10.0 mi ENE 11.5 mph - N/A   Clear
9:58 AM 82.9 °F 90.2 °F 75.0 °F 77% 30.21 in 10.0 mi East 12.7 mph - N/A   Scattered Clouds
10:58 AM 82.9 °F 90.8 °F 75.9 °F 79% 30.22 in 10.0 mi ENE 11.5 mph - N/A   Scattered Clouds
11:58 AM 82.9 °F 90.8 °F 75.9 °F 79% 30.23 in 10.0 mi ENE 13.8 mph - N/A   Scattered Clouds
12:58 PM 84.0 °F 92.6 °F 75.9 °F 76% 30.23 in 10.0 mi ENE 13.8 mph - N/A   Scattered Clouds
1:58 PM 84.9 °F 94.1 °F 75.9 °F 74% 30.22 in 10.0 mi ENE 13.8 mph - N/A   Scattered Clouds
2:58 PM 84.9 °F 93.3 °F 75.0 °F 72% 30.21 in 10.0 mi ENE 13.8 mph - N/A   Scattered Clouds
3:58 PM 86.0 °F 96.9 °F 77.0 °F 74% 30.20 in 7.0 mi ENE 12.7 mph - N/A   Scattered Clouds
4:15 PM 84.2 °F 92.3 °F 75.2 °F 74% 30.19 in 7.0 mi ENE 12.7 mph - N/A Thunderstorm Scattered Clouds
4:30 PM 84.2 °F 92.3 °F 75.2 °F 74% 30.20 in 7.0 mi ENE 12.7 mph - N/A   Scattered Clouds
4:58 PM 84.9 °F 93.3 °F 75.0 °F 72% 30.19 in 7.0 mi ENE 12.7 mph - N/A   Scattered Clouds
5:58 PM 84.0 °F 91.9 °F 75.0 °F 74% 30.19 in 10.0 mi ENE 11.5 mph - N/A   Unknown
6:58 PM 82.9 °F 90.2 °F 75.0 °F 77% 30.19 in 10.0 mi ENE 10.4 mph - N/A   Unknown
7:58 PM 82.0 °F 88.6 °F 75.0 °F 79% 30.20 in 10.0 mi ENE 8.1 mph - N/A   Unknown
8:58 PM 80.1 °F 85.4 °F 75.9 °F 87% 30.21 in 10.0 mi ENE 4.6 mph - N/A   Unknown
9:58 PM 80.1 °F 85.4 °F 75.9 °F 87% 30.20 in 10.0 mi NE 8.1 mph - N/A   Unknown
10:58 PM 79.0 °F - 75.9 °F 90% 30.21 in 10.0 mi NE 6.9 mph - N/A   Unknown
11:58 PM 79.0 °F - 75.0 °F 88% 30.21 in 10.0 mi ENE 5.8 mph - N/A   Unknown